Location: ????????
(54.8751°N, 38.5756°E)
Time: 04:01:25
(UTC+00:00)

Cosmos 1420 Rocket - Pass Details

Date: 14 April 2024
Orbit: 752 x 779 km, 74.0° (Epoch: 20 May)

Event Time Altitude Azimuth Distance (km) Brightness Sun altitude
Rises 00:27:47 0° 332° (NNW) 3,236 7.4 -15.2°
Reaches altitude 10° 00:30:09 10° 334° (NNW) 2,311 6.7 -15.0°
Maximum altitude 00:35:25 80° 61° (ENE) 788 4.1 -14.4°
Drops below altitude 10° 00:40:41 10° 149° (SSE) 2,314 6.4 -13.9°
Sets 00:43:04 0° 151° (SSE) 3,241 7.1 -13.6°
